Waarnemingen

Advertentie
Mijn weer
Leucate/Semaphore, Frankrijk (7666): temperatuur & dauwpunt: 11.06.2019 21:00:00 - 17.06.2019 21:00:00 (CEST)Leucate/Semaphore, Frankrijk (7666): windsnelheid & windstoten: 11.06.2019 21:00:00 - 17.06.2019 21:00:00 (CEST)Leucate/Semaphore, Frankrijk (7666): windrichting: 11.06.2019 21:00:00 - 17.06.2019 21:00:00 (CEST)Leucate/Semaphore, Frankrijk (7666): luchtdruk: 11.06.2019 21:00:00 - 17.06.2019 21:00:00 (CEST)Leucate/Semaphore, Frankrijk (7666): zicht: 11.06.2019 21:00:00 - 17.06.2019 21:00:00 (CEST)Leucate/Semaphore, Frankrijk (7666): neerslag: 11.06.2019 21:00:00 - 17.06.2019 21:00:00 (CEST)
Datum & Tijd tt [°C] td [°C] ff [km/u] ff [kn] fx [km/u] fx [kn] dd ppp [hPa] vv [km] rr [mm]
17.06.2019 21:00:00 - - - - - - - - - -
17.06.2019 20:00:00 23,3 12,9 16 9 28 15 ZZW 1013,6 - 0,0
17.06.2019 19:00:00 21,6 13,8 22 12 31 17 Z 1013,9 - 0,0
17.06.2019 18:00:00 21,6 14,0 20 11 36 19 Z 1014,2 - 0,0
17.06.2019 17:00:00 22,0 13,4 24 13 32 17 Z 1014,7 25 0,0
17.06.2019 16:00:00 22,2 16,2 17 9 23 13 Z 1014,8 - 0,0
17.06.2019 15:00:00 22,1 15,7 15 8 20 11 ZZO 1015,4 - 0,0
17.06.2019 14:00:00 23,1 12,7 10 5 15 8 ZZO 1015,4 30 0,0
17.06.2019 13:00:00 22,2 13,8 10 6 15 8 ZO 1015,9 - 0,0
17.06.2019 12:00:00 22,0 12,5 6 3 14 8 ZZO 1016,1 - 0,0
17.06.2019 11:00:00 21,2 13,4 9 5 16 9 Z 1016,4 30 0,0
17.06.2019 10:00:00 21,5 11,2 4 2 10 6 O 1016,4 - 0,0
17.06.2019 09:00:00 20,7 11,3 5 3 11 6 NO 1016,6 - 0,0
17.06.2019 08:00:00 18,6 13,2 6 4 11 6 ZZO 1016,5 25 0,0
17.06.2019 07:00:00 18,8 12,3 7 4 14 8 NW 1016,2 - 0,0
17.06.2019 06:00:00 18,8 10,6 9 5 17 9 ZZW 1016,0 - 0,0
17.06.2019 05:00:00 20,5 9,7 6 3 27 15 ZZO 1015,7 25 0,0
17.06.2019 04:00:00 21,4 9,3 16 9 30 16 WNW 1015,6 - 0,0
17.06.2019 03:00:00 22,3 9,1 19 10 33 18 WNW 1015,9 - 0,0
17.06.2019 02:00:00 22,2 9,0 16 9 35 19 NW 1016,0 - 0,0
17.06.2019 01:00:00 22,7 9,5 19 11 38 20 NW 1015,9 - 0,0
17.06.2019 00:00:00 22,9 8,9 21 11 37 20 WNW 1016,2 - 0,0
16.06.2019 23:00:00 23,7 8,9 19 10 41 22 NW 1016,2 - 0,0
16.06.2019 22:00:00 24,5 8,0 24 13 41 22 WNW 1015,8 - 0,0
16.06.2019 21:00:00 25,8 8,3 9 5 24 13 W 1015,8 - 0,0
16.06.2019 20:00:00 24,9 10,4 7 4 34 18 WZW 1015,6 25 0,0
16.06.2019 19:00:00 21,1 14,0 17 9 31 17 Z 1015,8 - 0,0
16.06.2019 18:00:00 22,9 11,3 11 6 23 13 Z 1015,8 - 0,0
16.06.2019 17:00:00 25,8 11,5 11 6 32 17 ZW 1016,5 - 0,0
16.06.2019 16:00:00 29,3 6,0 18 10 35 19 NNW 1016,8 - 0,0
16.06.2019 15:00:00 27,8 7,1 19 10 35 19 NNW 1017,2 - 0,0
16.06.2019 14:00:00 27,7 8,0 16 9 34 18 NW 1017,9 30 0,0
16.06.2019 13:00:00 26,0 8,9 20 11 41 22 NNW 1018,7 - 0,0
16.06.2019 12:00:00 24,4 9,5 21 12 43 23 NW 1019,3 - 0,0
16.06.2019 11:00:00 23,4 10,1 18 10 39 21 NW 1020,0 30 0,0
16.06.2019 10:00:00 21,9 9,8 21 12 40 22 NW 1020,1 - 0,0
16.06.2019 09:00:00 20,4 10,8 19 10 41 22 NW 1020,3 - 0,0
16.06.2019 08:00:00 18,4 10,5 21 12 44 24 NW 1020,2 - 0,0
16.06.2019 07:00:00 16,8 10,2 25 13 51 28 NW 1020,2 - 0,0
16.06.2019 06:00:00 16,2 10,3 22 12 42 23 NW 1020,1 - 0,0
16.06.2019 05:00:00 16,3 10,2 19 10 31 17 NW 1020,0 20 0,0
16.06.2019 04:00:00 16,6 10,4 16 9 37 20 NW 1020,3 - 0,0
16.06.2019 03:00:00 16,9 10,5 21 11 41 22 NW 1020,3 - 0,0
16.06.2019 02:00:00 17,2 10,8 20 11 43 23 NW 1020,7 - 0,0
16.06.2019 01:00:00 17,4 10,7 24 13 51 28 NW 1020,5 - 0,0
16.06.2019 00:00:00 17,8 10,9 28 15 63 34 NW 1020,0 - 0,0
15.06.2019 23:00:00 18,2 10,8 28 15 61 33 NW 1019,8 - 0,0
15.06.2019 22:00:00 18,2 10,6 29 16 54 29 NW 1019,2 - 0,0
15.06.2019 21:00:00 18,9 10,7 33 18 66 35 NW 1018,6 - 0,0
15.06.2019 20:00:00 19,2 10,5 33 18 74 40 NW 1018,1 - 0,0
15.06.2019 19:00:00 19,5 10,5 29 15 64 34 NW 1018,4 - 0,0
15.06.2019 18:00:00 20,7 11,1 30 16 61 33 NW 1018,3 - 0,0
15.06.2019 17:00:00 21,1 11,1 35 19 72 39 NW 1017,8 25 0,0
15.06.2019 16:00:00 21,0 11,3 35 19 68 37 NW 1017,4 - 0,0
15.06.2019 15:00:00 22,0 11,7 29 16 58 32 NW 1017,1 - 0,0
15.06.2019 14:00:00 22,2 13,0 27 15 56 31 WNW 1017,2 - 0,0
15.06.2019 13:00:00 22,4 13,7 26 14 49 27 NW 1017,0 - 0,0
15.06.2019 12:00:00 21,3 13,2 22 12 41 22 NW 1016,9 - 0,0
15.06.2019 11:00:00 20,5 13,2 18 10 39 21 NW 1016,7 15 0,0
15.06.2019 10:00:00 19,6 12,8 6 4 30 16 W 1016,5 - 0,0
15.06.2019 09:00:00 19,4 12,4 16 9 32 18 WNW 1015,7 - 0,0
15.06.2019 08:00:00 17,9 12,1 16 9 35 19 WNW 1015,2 15 0,0
15.06.2019 07:00:00 16,8 12,1 11 6 23 13 NW 1014,6 - 0,0
15.06.2019 06:00:00 16,7 12,0 13 7 28 15 WNW 1014,6 - 0,0
15.06.2019 05:00:00 16,7 12,2 16 9 34 19 NW 1014,1 15 0,0
15.06.2019 04:00:00 16,1 12,6 6 4 11 6 NW 1013,9 - 0,0
15.06.2019 03:00:00 16,7 12,4 7 4 13 7 NW 1013,6 - 0,0
15.06.2019 02:00:00 17,6 12,1 2 1 29 16 WNW 1013,6 - 0,0
15.06.2019 01:00:00 18,2 12,6 19 10 36 19 WNW 1013,2 - 0,0
15.06.2019 00:00:00 18,9 12,6 19 10 38 21 WNW 1012,9 - 0,0
14.06.2019 23:00:00 19,0 13,0 18 10 40 22 NW 1012,4 - 0,0
14.06.2019 22:00:00 19,1 13,1 24 13 38 20 NW 1011,5 - 0,0
14.06.2019 21:00:00 19,7 13,6 23 12 49 26 NW 1010,1 - 0,0
14.06.2019 20:00:00 20,1 14,2 27 15 60 33 NW 1009,2 20 0,0
14.06.2019 19:00:00 21,7 13,3 29 16 60 32 NW 1009,4 - 0,0
14.06.2019 18:00:00 24,6 12,2 16 9 32 17 NW 1008,4 - 0,0
14.06.2019 17:00:00 24,3 13,2 22 12 39 21 NNW 1006,7 20 0,0
14.06.2019 16:00:00 24,1 13,3 12 7 27 15 NNW 1008,4 - 0,0
14.06.2019 15:00:00 24,4 10,7 10 6 32 17 NNW 1008,8 - 0,0
14.06.2019 14:00:00 22,4 12,3 19 11 42 23 NW 1008,4 - 0,0
14.06.2019 13:00:00 21,9 13,5 15 8 31 17 N 1009,9 - 0,0
14.06.2019 12:00:00 21,1 14,0 19 10 43 23 NW 1010,9 - 0,0
14.06.2019 11:00:00 19,4 14,0 21 12 40 22 NW 1011,5 20 0,0
14.06.2019 10:00:00 16,5 13,2 18 10 38 20 NW 1011,6 - 0,0
14.06.2019 09:00:00 15,0 12,5 18 10 27 15 W 1011,8 - 0,4
14.06.2019 08:00:00 15,1 12,0 16 9 38 20 NW 1011,5 20 0,2
14.06.2019 07:00:00 15,4 12,5 23 13 39 21 NW 1011,5 - 0,6
14.06.2019 06:00:00 16,4 14,1 18 10 28 15 NNW 1012,0 - 0,0
14.06.2019 05:00:00 16,0 13,7 9 5 23 12 NNW 1012,4 20 0,0
14.06.2019 04:00:00 16,7 15,1 9 5 15 8 NNO 1012,3 - 0,0
14.06.2019 03:00:00 16,9 15,2 6 3 34 18 NO 1012,7 - 0,0
14.06.2019 02:00:00 16,9 15,1 22 12 33 18 OZO 1013,4 - 0,0
14.06.2019 01:00:00 16,8 14,8 17 9 26 14 O 1014,0 - 0,0
14.06.2019 00:00:00 17,0 15,0 14 8 21 11 O 1014,0 - 0,0
13.06.2019 23:00:00 16,8 14,3 7 4 21 11 ONO 1013,8 - 0,0
13.06.2019 22:00:00 16,9 14,2 19 11 31 17 OZO 1013,6 - 0,0
13.06.2019 21:00:00 17,0 13,9 28 15 40 22 ZO 1013,2 - 0,0
13.06.2019 20:00:00 17,1 13,8 31 17 45 24 ZO 1012,8 - 0,0
13.06.2019 19:00:00 17,4 13,7 34 18 44 24 ZO 1012,8 - 0,0
13.06.2019 18:00:00 17,5 13,0 36 19 54 29 ZO 1013,1 - 0,0
13.06.2019 17:00:00 17,7 12,8 40 21 51 28 ZO 1013,2 - 0,0
13.06.2019 16:00:00 17,9 13,0 22 12 46 25 OZO 1013,6 - 0,0
13.06.2019 15:00:00 18,2 12,9 34 18 46 25 ZO 1013,8 - 0,0
13.06.2019 14:00:00 18,5 13,8 34 18 42 23 ZO 1014,1 - 0,0
13.06.2019 13:00:00 17,9 13,8 28 15 40 22 OZO 1014,2 - 0,0
13.06.2019 12:00:00 17,9 13,6 29 16 37 20 ZO 1014,4 - 0,0
13.06.2019 11:00:00 17,8 13,9 22 12 29 16 OZO 1014,7 20 0,0
13.06.2019 10:00:00 18,1 13,8 18 10 23 12 OZO 1014,6 - 0,0
13.06.2019 09:00:00 17,6 14,1 7 4 16 9 NNO 1014,7 - 0,0
13.06.2019 08:00:00 15,7 13,7 9 5 19 11 NNW 1014,6 20 0,0
13.06.2019 07:00:00 14,0 12,7 10 6 17 9 NW 1014,5 - 0,0
13.06.2019 06:00:00 13,8 12,0 12 7 16 9 NNW 1014,0 - 0,0
13.06.2019 05:00:00 13,5 10,8 11 6 16 8 N 1014,0 20 0,0
13.06.2019 04:00:00 14,2 10,2 8 5 12 7 N 1013,9 - 0,0
13.06.2019 03:00:00 14,5 10,9 11 6 20 11 W 1014,2 - 0,0
13.06.2019 02:00:00 15,3 11,3 16 8 19 10 ZW 1014,5 - 0,0
13.06.2019 01:00:00 15,7 11,9 16 9 19 10 WZW 1014,8 - 0,0
13.06.2019 00:00:00 16,4 12,2 14 8 19 11 ZW 1015,1 - 0,0
12.06.2019 23:00:00 16,3 12,8 14 7 30 16 ZZW 1015,0 - 0,0
12.06.2019 22:00:00 16,4 12,7 18 10 30 16 ZZW 1014,5 - 0,0
12.06.2019 21:00:00 16,9 12,2 19 10 33 18 ZZW 1014,2 - 0,0
12.06.2019 20:00:00 16,9 11,8 24 13 35 19 Z 1014,1 - 0,0
12.06.2019 19:00:00 16,9 10,5 29 15 36 19 Z 1013,7 - 0,0
12.06.2019 18:00:00 17,2 9,9 32 17 38 20 Z 1013,9 - 0,0
12.06.2019 17:00:00 17,7 9,1 30 16 38 20 ZZO 1014,1 20 0,0
12.06.2019 16:00:00 16,7 10,1 34 18 40 22 ZZO 1014,2 - 0,0
12.06.2019 15:00:00 16,7 9,6 29 16 32 17 ZO 1014,3 - 0,0
12.06.2019 14:00:00 16,4 8,6 25 13 28 15 ZO 1014,7 35 0,0
12.06.2019 13:00:00 16,6 8,8 20 11 28 15 ZO 1014,7 - 0,0
12.06.2019 12:00:00 17,1 8,2 13 7 23 12 OZO 1014,7 - 0,0
12.06.2019 11:00:00 18,2 6,7 13 7 22 12 NNW 1014,6 35 0,0
12.06.2019 10:00:00 16,8 6,9 12 6 24 13 N 1014,9 - 0,0
12.06.2019 09:00:00 15,4 6,4 12 6 25 13 NNW 1015,1 - 0,0
12.06.2019 08:00:00 13,7 6,3 10 6 19 11 WNW 1014,5 - 0,0
12.06.2019 07:00:00 12,2 5,8 11 6 20 11 WNW 1014,1 - 0,0
12.06.2019 06:00:00 11,5 5,8 11 6 27 14 NW 1013,5 - 0,0
12.06.2019 05:00:00 11,1 5,4 13 7 22 12 NW 1013,7 25 0,0
12.06.2019 04:00:00 11,3 5,6 9 5 21 11 WNW 1013,7 - 0,0
12.06.2019 03:00:00 12,5 6,1 14 8 39 21 NW 1013,7 - 0,0
12.06.2019 02:00:00 12,5 6,1 16 9 35 19 NW 1014,0 - 0,0
12.06.2019 01:00:00 12,7 6,3 13 7 35 19 NW 1014,0 - 0,0
12.06.2019 00:00:00 13,3 7,1 21 11 48 26 NW 1013,5 - 0,0
11.06.2019 23:00:00 13,9 7,0 16 8 39 21 NW 1013,9 - 0,0
11.06.2019 22:00:00 13,5 7,9 16 9 39 21 WNW 1013,6 - 0,0
11.06.2019 21:00:00 14,1 7,6 18 10 37 20 NW 1013,4 - 0,0

tt = temperatuur
td = dauwpunt
ff = windsnelheid
fx = windstoten
dd = windrichting
ppp = luchtdruk
vv = zicht
rr = neerslag

Weerstations in de omgeving